Simultaneous Nadir Overpasses (SNOs) Predictions

Prediction of SNOs between AQUA and METOP-C Satellite Orbit:

Table of predicted SNOs for the next 14.0 days since TLE Epoch: 11/4/2022
Index Date (AQUA) Time (AQUA) Lat,Lon (AQUA) SZA (AQUA ) Date (METOP-C) Time (METOP-C) Lat,Lon (METOP-C) SZA (METOP-C ) Distance(km) Time Diff (sec)
1 11/05/2022 11:36:24 -74.07,-179.07 90.27 11/05/2022 11:36:02 -74.07,-179.14 90.27 2.24 22
2 11/05/2022 12:25:52 74.13, -11.56 89.80 11/05/2022 12:26:39 74.16, -11.60 89.83 3.26 47
3 11/08/2022 06:20:12 74.07, 80.00 90.56 11/08/2022 06:19:43 74.06, 79.92 90.55 2.89 29
4 11/08/2022 07:09:38 -74.14,-112.51 89.36 11/08/2022 07:10:24 -74.16,-112.53 89.35 1.81 46
5 11/11/2022 01:03:57 -74.09, -20.96 88.64 11/11/2022 01:03:27 -74.10, -20.92 88.63 1.40 30
6 11/11/2022 01:53:25 74.16, 146.53 91.44 11/11/2022 01:54:05 74.14, 146.51 91.43 2.17 40
7 11/13/2022 19:47:41 74.07,-121.82 92.10 11/13/2022 19:47:07 74.07,-121.90 92.11 2.42 34
8 11/13/2022 20:37:08 -74.18, 45.57 87.79 11/13/2022 20:37:48 -74.16, 45.64 87.80 3.08 40
9 11/16/2022 14:31:24 -74.10, 137.20 87.17 11/16/2022 14:30:51 -74.08, 137.20 87.18 1.56 33
10 11/16/2022 15:20:52 74.17, -55.33 92.92 11/16/2022 15:21:28 74.18, -55.23 92.93 3.27 36



Historial Predications of SNOs between AQUA and METOP-C
